This demonstration page uses our WeatherBlox Daily Observations layout. Learn more.

Left ArrowRight Arrow

39.01783, -85.05884

Hourly Observations for January 27, 2020

Temp ( °F °C ) Dew Point ( °F °C ) Humidity (%) Winds ( mph kmh ) Pressure ( in mb ) Visibility ( mi km ) Precip ( " mm )
12:52 am 00:52 Partly Cloudy 32 0 27 -2.8 82 82 Calm 29.89 1012 10 16 0.00 0.00
1:52 am 01:52 Mostly Clear 33 0.6 28 -2.2 82 82 WSW 3 6 29.88 1012 10 16 0.00 0.00
2:52 am 02:52 Clear 30 -1.1 27 -2.8 88 88 W 3 6 29.88 1012 10 16 0.00 0.00
3:52 am 03:52 Clear 29 -1.7 26 -3.3 89 89 W 5 7 29.88 1012 10 16 0.00 0.00
4:52 am 04:52 Clear 30 -1.1 26 -3.3 85 85 W 6 9 29.87 1012 10 16 0.00 0.00
5:52 am 05:52 Partly Cloudy 28 -2.2 24 -4.4 85 85 W 5 7 29.88 1012 10 16 0.00 0.00
6:52 am 06:52 Mostly Clear 27 -2.8 25 -3.9 92 92 Calm 29.88 1012 10 16 0.00 0.00
7:52 am 07:52 Mostly Cloudy with Mist and Fog 28 -2.2 26 -3.3 92 92 W 3 6 29.90 1013 5 8 0.00 0.00
8:01 am 08:01 Cloudy with Mist and Fog 28 -2.2 26 -3.3 92 92 WSW 5 7 29.94 1014 5 8 0.00 0.00
8:52 am 08:52 Cloudy with Mist and Fog 31 -0.6 28 -2.2 89 89 WNW 9 15 29.92 1013 5 8 0.00 0.00
9:06 am 09:06 Cloudy with Mist and Fog 31 -0.6 28 -2.2 89 89 NW 9 15 29.96 1014 4 6 0.00 0.00
9:31 am 09:31 Cloudy with Mist and Fog 31 -0.6 28 -2.2 89 89 NW 9 15 29.96 1014 5 8 0.00 0.00
9:52 am 09:52 Cloudy with Mist and Fog 31 -0.6 27 -2.8 85 85 WNW 8 13 29.93 1014 5 8 0.00 0.00
10:52 am 10:52 Cloudy 34 1.1 27 -2.8 76 76 N 12 19 29.94 1014 7 11 0.00 0.00
11:52 am 11:52 Cloudy 35 1.7 28 -2.2 76 76 NW 7 11 29.94 1014 8 13 0.00 0.00
12:39 pm 12:39 Cloudy 36 2.2 28 -2.2 73 73 WNW 6 9 29.96 1014 7 11 0.00 0.00
12:52 pm 12:52 Cloudy 37 2.8 29 -1.7 73 73 WNW 6 9 29.93 1013 8 13 0.00 0.00
1:52 pm 13:52 Cloudy 38 3.3 29 -1.7 70 70 NW 8 13 29.92 1013 9 14 0.00 0.00
2:52 pm 14:52 Cloudy 38 3.3 29 -1.7 70 70 WNW 9 15 29.92 1013 9 14 0.00 0.00
3:52 pm 15:52 Cloudy 37 2.8 29 -1.7 73 73 NW 13 20 29.94 1014 9 14 0.00 0.00
4:52 pm 16:52 Cloudy 36 2.2 28 -2.2 73 73 NW 9 15 29.96 1015 8 13 0.00 0.00
5:40 pm 17:40 Cloudy with Haze 35 1.7 28 -2.2 76 76 NNW 8 13 30.00 1016 6 10 0.00 0.00
5:52 pm 17:52 Cloudy with Haze 34 1.1 28 -2.2 79 79 NW 8 13 29.98 1015 6 10 0.00 0.00
6:52 pm 18:52 Cloudy 34 1.1 27 -2.8 76 76 NNW 9 15 30.00 1016 7 11 0.00 0.00
7:52 pm 19:52 Cloudy 33 0.6 27 -2.8 78 78 NW 6 9 30.02 1017 7 11 0.00 0.00
8:52 pm 20:52 Cloudy with Haze 33 0.6 27 -2.8 78 78 NW 8 13 30.03 1017 6 10 0.00 0.00
9:52 pm 21:52 Cloudy with Haze 33 0.6 27 -2.8 78 78 NW 8 13 30.03 1017 6 10 0.00 0.00
10:52 pm 22:52 Cloudy with Haze 33 0.6 27 -2.8 78 78 Calm 30.04 1017 6 10 0.00 0.00
11:26 pm 23:26 Cloudy with Haze 33 0.6 27 -2.8 78 78 NW 6 9 30.07 1018 6 10 0.00 0.00
11:52 pm 23:52 Cloudy with Haze 33 0.6 28 -2.2 82 82 NW 7 11 30.05 1018 6 10 0.00 0.00

Powered by AerisWeather